User: anonymous   Login
Location: Dappach
(48.9767°N, 9.6998°E)
Time: 20:00:02
(UTC+00:00)
Language:

Cosmos 2082 Rocket - Orbit

View from above orbital plane
View from above orbital plane
View from above satellite
View from above satellite

Ground track
Ground track

The orbit data is extracted from the following two-line orbital elements,

1 20625U 90046B   24198.22360594 -.00000122  00000-0 -38687-4 0  9992
2 20625  71.0002 120.9555 0012688 146.6514 213.5410 14.14848579763560
Epoch (UTC): 16 July 2024 05:21:59
Eccentricity: 0.0012688
inclination: 71.0002°
perigee height: 833 km
apogee height: 852 km
right ascension of ascending node: 120.9555°
argument of perigee: 146.6514°
revolutions per day: 14.14848579
mean anomaly at epoch: 213.5410°
orbit number at epoch: 76356

The dashed part of the orbit path shows where the satellite is in the earth's shadow,  

DLR